Weather observations for the past three days for
Harvey Municipal Airport
| Date | Time (cdt) | Wind (mph) | Vis. (mi.) | Weather | Sky Cond. | Temperature (ºF) | Relative Humidity | Wind Chill (°F) | Heat Index (°F) | Pressure | Precipitation (in) | ||||||
|---|---|---|---|---|---|---|---|---|---|---|---|---|---|---|---|---|---|
| Air | Dwpt | 6 hour | altimeter (in) | sea level (mb) | 1 hr | 3 hr | 6 hr | ||||||||||
| Max. | Min. | ||||||||||||||||
| 07 | 23:35 | SE 5 | 10.00 | Mostly Cloudy | BKN120 | 41 | 19.4 | 42% | 38 | 29.79 | 0.0 | ||||||
| 07 | 23:15 | Calm | 10.00 | Partly Cloudy | SCT110 | 41 | 19.4 | 42% | 29.8 | 0.0 | |||||||
| 07 | 22:55 | E 3 | 10.00 | Partly Cloudy | SCT095 | 44.6 | 21.2 | 39% | 29.8 | 0.0 | |||||||
| 07 | 22:35 | Calm | 10.00 | Mostly Cloudy | BKN095 | 42.8 | 23 | 46% | 29.81 | 0.0 | |||||||
| 07 | 22:15 | NE 5 | 10.00 | Fair | CLR | 42.8 | 21.2 | 42% | 41 | 29.81 | 0.0 | ||||||
| 07 | 21:55 | NE 6 | 10.00 | A Few Clouds | FEW110 | 42.8 | 21.2 | 42% | 40 | 29.8 | 0.0 | ||||||
| 07 | 21:35 | N 7 | 10.00 | Mostly Cloudy | BKN110 | 44.6 | 21.2 | 39% | 41 | 29.8 | 0.0 | ||||||
| 07 | 21:15 | N 7 | 10.00 | A Few Clouds | FEW110 | 46.4 | 19.4 | 34% | 43 | 29.8 | 0.0 | ||||||
| 07 | 20:55 | N 8 | 10.00 | Fair | CLR | 48.2 | 19.4 | 32% | 45 | 29.79 | 0.0 | ||||||
| 07 | 20:35 | N 8 | 10.00 | Fair | CLR | 51.8 | 19.4 | 28% | 29.78 | 0.0 | |||||||
| 07 | 20:15 | N 10 | 10.00 | Fair | CLR | 55.4 | 17.6 | 23% | 29.78 | 0.0 | |||||||
| 07 | 19:55 | N 8 G 15 | 10.00 | Fair | CLR | 57.2 | 17.6 | 21% | 29.78 | 0.0 | |||||||
| 07 | 19:35 | N 12 | 10.00 | Fair | CLR | 59 | 15.8 | 18% | 29.77 | 0.0 | |||||||
| 07 | 19:15 | N 12 G 17 | 10.00 | Fair | CLR | 59 | 15.8 | 18% | 29.77 | 0.0 | |||||||
| 07 | 18:55 | NW 14 | 10.00 | Fair | CLR | 59 | 15.8 | 18% | 29.77 | 0.0 | |||||||
| 07 | 18:35 | N 16 | 10.00 | Fair | CLR | 59 | 15.8 | 18% | 29.77 | 0.0 | |||||||
| 07 | 18:15 | NW 10 G 22 | 10.00 | Fair | CLR | 60.8 | 17.6 | 19% | 29.78 | 0.0 | |||||||
| 07 | 17:55 | NW 16 | 10.00 | Fair | CLR | 60.8 | 15.8 | 17% | 29.77 | 0.0 | |||||||
| 07 | 17:35 | NW 16 G 23 | 10.00 | Fair | CLR | 60.8 | 15.8 | 17% | 29.78 | 0.0 | |||||||
| 07 | 17:15 | NW 15 | 10.00 | Fair | CLR | 60.8 | 15.8 | 17% | 29.78 | 0.0 | |||||||
| 07 | 16:55 | W 13 | 10.00 | Fair | CLR | 60.8 | 15.8 | 17% | 29.78 | 0.0 | |||||||
| 07 | 16:35 | W 14 G 21 | 10.00 | Fair | CLR | 60.8 | 15.8 | 17% | 29.79 | 0.0 | |||||||
| 07 | 16:15 | W 15 G 22 | 10.00 | Fair | CLR | 60.8 | 15.8 | 17% | 29.8 | 0.0 | |||||||
| 07 | 15:15 | NW 15 G 22 | 10.00 | Fair | CLR | 59 | 17.6 | 20% | 29.81 | 0.0 | |||||||
| 07 | 14:55 | W 15 G 21 | 10.00 | Fair | CLR | 59 | 15.8 | 18% | 29.82 | 0.0 | |||||||
| 07 | 14:35 | NW 12 G 23 | 10.00 | Fair | CLR | 57.2 | 17.6 | 21% | 29.82 | 0.0 | |||||||
| 07 | 14:15 | NW 16 G 23 | 10.00 | Fair | CLR | 59 | 17.6 | 20% | 29.82 | 0.0 | |||||||
| 07 | 13:55 | W 14 G 22 | 10.00 | Fair | CLR | 57.2 | 17.6 | 21% | 29.83 | 0.0 | |||||||
| 07 | 13:35 | NW 10 G 20 | 10.00 | Fair | CLR | 57.2 | 15.8 | 20% | 29.83 | 0.0 | |||||||
| 07 | 13:15 | NW 14 | 10.00 | Fair | CLR | 57.2 | 15.8 | 20% | 29.83 | 0.0 | |||||||
| 07 | 12:55 | NW 14 | 10.00 | Fair | CLR | 55.4 | 17.6 | 23% | 29.84 | 0.0 | |||||||
| 07 | 12:35 | N 9 G 20 | 10.00 | Fair | CLR | 55.4 | 17.6 | 23% | 29.85 | 0.0 | |||||||
| 07 | 12:15 | NW 16 | 10.00 | Fair | CLR | 55.4 | 19.4 | 24% | 29.85 | 0.0 | |||||||
| 07 | 11:55 | NW 13 G 20 | 10.00 | Fair | CLR | 53.6 | 19.4 | 26% | 29.86 | 0.0 | |||||||
| 07 | 11:35 | NW 13 | 10.00 | Fair | CLR | 53.6 | 21.2 | 28% | 29.86 | 0.0 | |||||||
| 07 | 11:15 | NW 12 G 17 | 10.00 | Fair | CLR | 53.6 | 19.4 | 26% | 29.86 | 0.0 | |||||||
| 07 | 10:55 | NW 10 | 10.00 | Fair | CLR | 51.8 | 19.4 | 28% | 29.87 | 0.0 | |||||||
| 07 | 10:35 | W 12 | 10.00 | Fair | CLR | 51.8 | 19.4 | 28% | 29.87 | 0.0 | |||||||
| 07 | 10:15 | Vrbl 7 G 15 | 10.00 | Fair | CLR | 51.8 | 21.2 | 30% | 29.87 | 0.0 | |||||||
| 07 | 09:55 | W 10 | 10.00 | Fair | CLR | 50 | 21.2 | 32% | 46 | 29.87 | 0.0 | ||||||
| 07 | 09:35 | W 7 | 10.00 | Fair | CLR | 50 | 23 | 35% | 48 | 29.87 | 0.0 | ||||||
| 07 | 09:15 | W 6 | 10.00 | Fair | CLR | 46.4 | 26.6 | 46% | 44 | 29.87 | 0.0 | ||||||
| 07 | 08:55 | W 8 | 10.00 | Fair | CLR | 42.8 | 26.6 | 53% | 39 | 29.87 | 0.0 | ||||||
| 07 | 08:35 | W 7 | 10.00 | Fair | CLR | 41 | 26.6 | 57% | 37 | 29.88 | 0.0 | ||||||
| 07 | 08:15 | W 8 | 10.00 | Fair | CLR | 39.2 | 26.6 | 61% | 34 | 29.88 | 0.0 | ||||||
| 07 | 07:55 | SW 8 | 10.00 | Fair | CLR | 35.6 | 26.6 | 70% | 30 | 29.88 | 0.0 | ||||||
| 07 | 07:35 | SW 7 | 10.00 | Fair | CLR | 32 | 26.6 | 80% | 26 | 29.87 | 0.0 | ||||||
| 07 | 07:15 | W 7 | 10.00 | Fair | CLR | 28.4 | 24.8 | 86% | 22 | 29.87 | 0.0 | ||||||
| 07 | 06:55 | W 7 | 10.00 | Fair | CLR | 24.8 | 23 | 93% | 18 | 29.87 | 0.0 | ||||||
| 07 | 06:35 | SW 7 | 9.00 | Fair | CLR | 23 | 21.2 | 93% | 16 | 29.86 | 0.0 | ||||||
| 07 | 06:15 | W 6 | 10.00 | Fair | CLR | 26.6 | 24.8 | 93% | 21 | 29.86 | 0.0 | ||||||
| 07 | 05:55 | W 6 | 10.00 | Fair | CLR | 26.6 | 24.8 | 93% | 21 | 29.87 | 0.0 | ||||||
| 07 | 05:35 | W 6 | 10.00 | Fair | CLR | 26.6 | 24.8 | 93% | 21 | 29.87 | 0.0 | ||||||
| 07 | 05:15 | W 6 | 10.00 | Fair | CLR | 26.6 | 24.8 | 93% | 21 | 29.87 | 0.0 | ||||||
| 07 | 04:55 | W 7 | 10.00 | Fair | CLR | 26.6 | 24.8 | 93% | 20 | 29.87 | 0.0 | ||||||
| 07 | 04:35 | W 6 | 10.00 | Fair | CLR | 26.6 | 24.8 | 93% | 21 | 29.87 | 0.0 | ||||||
| 07 | 04:15 | W 5 | 10.00 | Fair | CLR | 24.8 | 24.8 | 100% | 20 | 29.87 | 0.0 | ||||||
| 07 | 03:55 | W 6 | 10.00 | Fair | CLR | 26.6 | 23 | 86% | 21 | 29.87 | 0.0 | ||||||
| 07 | 03:35 | SW 6 | 10.00 | Fair | CLR | 26.6 | 23 | 86% | 21 | 29.87 | 0.0 | ||||||
| 07 | 03:15 | SW 8 | 10.00 | Fair | CLR | 26.6 | 23 | 86% | 19 | 29.87 | 0.0 | ||||||
| 07 | 02:55 | SW 8 | 10.00 | Fair | CLR | 26.6 | 21.2 | 80% | 19 | 29.87 | 0.0 | ||||||
| 07 | 02:35 | W 8 | 10.00 | Fair | CLR | 26.6 | 21.2 | 80% | 19 | 29.88 | 0.0 | ||||||
| 07 | 02:15 | SW 7 | 10.00 | Fair | CLR | 28.4 | 21.2 | 74% | 22 | 29.87 | 0.0 | ||||||
| 07 | 01:55 | SW 7 | 10.00 | Fair | CLR | 26.6 | 21.2 | 80% | 20 | 29.87 | 0.0 | ||||||
| 07 | 01:35 | SW 6 | 10.00 | Fair | CLR | 30.2 | 21.2 | 69% | 25 | 29.87 | 0.0 | ||||||
| 07 | 01:15 | SW 5 | 10.00 | Fair | CLR | 32 | 21.2 | 64% | 28 | 29.88 | 0.0 | ||||||
| 07 | 00:55 | Calm | 10.00 | Fair | CLR | 32 | 21.2 | 64% | 29.88 | 0.0 | |||||||
| 07 | 00:35 | Calm | 10.00 | Fair | CLR | 32 | 21.2 | 64% | 29.88 | 0.0 | |||||||
| 07 | 00:15 | SW 3 | 10.00 | Fair | CLR | 32 | 21.2 | 64% | 29.88 | 0.0 | |||||||
| 06 | 23:55 | SW 3 | 10.00 | Fair | CLR | 35.6 | 21.2 | 56% | 29.88 | 0.0 | |||||||
| 06 | 23:35 | SW 5 | 10.00 | Fair | CLR | 33.8 | 21.2 | 60% | 30 | 29.89 | 0.0 | ||||||
| 06 | 23:15 | SW 5 | 10.00 | Fair | CLR | 32 | 19.4 | 60% | 28 | 29.89 | 0.0 | ||||||
| 06 | 22:55 | SE 3 | 10.00 | Fair | CLR | 35.6 | 19.4 | 52% | 29.89 | 0.0 | |||||||
| 06 | 22:35 | E 3 | 10.00 | A Few Clouds | FEW080 FEW090 | 39.2 | 19.4 | 45% | 29.9 | 0.0 | |||||||
| 06 | 22:15 | NE 3 | 10.00 | A Few Clouds | FEW080 FEW090 | 41 | 21.2 | 45% | 29.9 | 0.0 | |||||||
| 06 | 21:55 | Calm | 10.00 | Fair | CLR | 41 | 21.2 | 45% | 29.9 | 0.0 | |||||||
| 06 | 21:35 | NW 3 | 10.00 | Partly Cloudy | SCT095 | 42.8 | 21.2 | 42% | 29.91 | 0.0 | |||||||
| 06 | 21:15 | NW 5 | 10.00 | Mostly Cloudy | SCT070 BKN100 | 44.6 | 19.4 | 37% | 43 | 29.91 | 0.0 | ||||||
| 06 | 20:55 | W 5 | 10.00 | Overcast | OVC070 | 46.4 | 19.4 | 34% | 45 | 29.91 | 0.0 | ||||||
| 06 | 20:35 | Calm | 10.00 | Overcast | OVC065 | 46.4 | 19.4 | 34% | 29.91 | 0.0 | |||||||
| 06 | 20:15 | NW 5 | 10.00 | Overcast | OVC060 | 46.4 | 21.2 | 37% | 45 | 29.91 | 0.0 | ||||||
| 06 | 19:55 | W 8 | 10.00 | Mostly Cloudy | BKN060 BKN075 | 46.4 | 19.4 | 34% | 43 | 29.91 | 0.0 | ||||||
| 06 | 19:35 | NW 6 | 9.00 | A Few Clouds | FEW055 FEW095 | 48.2 | 19.4 | 32% | 46 | 29.92 | 0.0 | ||||||
| 06 | 19:15 | NW 9 | 10.00 | Partly Cloudy | SCT095 | 48.2 | 17.6 | 29% | 45 | 29.92 | 0.0 | ||||||
| 06 | 18:55 | N 6 | 10.00 | Mostly Cloudy | SCT075 BKN090 | 48.2 | 17.6 | 29% | 46 | 29.92 | 0.0 | ||||||
| 06 | 18:35 | NW 9 | 10.00 | Mostly Cloudy | BKN075 BKN090 | 48.2 | 17.6 | 29% | 45 | 29.92 | 0.0 | ||||||
| 06 | 18:15 | NW 9 | 10.00 | Mostly Cloudy | BKN075 BKN085 | 48.2 | 17.6 | 29% | 45 | 29.92 | 0.0 | ||||||
| 06 | 17:55 | NW 7 G 16 | 10.00 | Mostly Cloudy | BKN070 BKN080 | 50 | 17.6 | 28% | 48 | 29.93 | 0.0 | ||||||
| 06 | 17:35 | Vrbl 6 G 17 | 10.00 | Mostly Cloudy | BKN075 | 50 | 17.6 | 28% | 48 | 29.93 | 0.0 | ||||||
| 06 | 17:15 | NW 13 | 10.00 | Mostly Cloudy | BKN070 | 50 | 17.6 | 28% | 46 | 29.94 | 0.0 | ||||||
| 06 | 16:55 | NW 7 G 13 | 10.00 | Partly Cloudy | SCT070 | 48.2 | 17.6 | 29% | 46 | 29.94 | 0.0 | ||||||
| 06 | 16:35 | W 14 | 10.00 | Mostly Cloudy | BKN065 | 48.2 | 17.6 | 29% | 43 | 29.95 | 0.0 | ||||||
| 06 | 16:15 | N 6 | 10.00 | Mostly Cloudy | BKN065 | 48.2 | 17.6 | 29% | 46 | 29.96 | 0.0 | ||||||
| 06 | 15:55 | Vrbl 8 G 14 | 10.00 | Mostly Cloudy | BKN065 | 50 | 19.4 | 30% | 47 | 29.97 | 0.0 | ||||||
| 06 | 15:35 | Vrbl 7 | 10.00 | Mostly Cloudy | BKN060 | 48.2 | 17.6 | 29% | 46 | 29.97 | 0.0 | ||||||
| 06 | 15:15 | W 9 G 18 | 10.00 | A Few Clouds | FEW060 | 48.2 | 19.4 | 32% | 45 | 29.98 | 0.0 | ||||||
| 06 | 14:55 | N 7 G 17 | 10.00 | Mostly Cloudy | BKN060 | 46.4 | 17.6 | 32% | 43 | 29.99 | 0.0 | ||||||
| 06 | 14:35 | Vrbl 6 G 20 | 10.00 | Mostly Cloudy | BKN055 | 48.2 | 17.6 | 29% | 46 | 29.99 | 0.0 | ||||||
| 06 | 14:15 | NW 17 | 10.00 | Mostly Cloudy | BKN055 | 48.2 | 19.4 | 32% | 42 | 30 | 0.0 | ||||||
| 06 | 13:55 | NW 15 | 10.00 | Mostly Cloudy | BKN055 | 44.6 | 19.4 | 37% | 38 | 30 | 0.0 | ||||||
| 06 | 13:35 | W 9 G 18 | 10.00 | Mostly Cloudy | BKN055 BKN065 | 44.6 | 19.4 | 37% | 40 | 30.01 | 0.0 | ||||||
| 06 | 13:15 | W 12 | 10.00 | Overcast | OVC050 | 42.8 | 17.6 | 36% | 37 | 30.02 | 0.0 | ||||||
| 06 | 12:55 | NW 13 G 20 | 10.00 | Mostly Cloudy | BKN050 BKN060 | 42.8 | 17.6 | 36% | 37 | 30.03 | 0.0 | ||||||
| 06 | 12:35 | NW 14 | 10.00 | Overcast | BKN050 OVC055 | 42.8 | 17.6 | 36% | 36 | 30.04 | 0.0 | ||||||
| 06 | 12:15 | NW 6 G 15 | 10.00 | Overcast | BKN050 OVC055 | 41 | 17.6 | 39% | 38 | 30.04 | 0.0 | ||||||
| 06 | 11:55 | N 12 | 10.00 | Overcast | OVC050 | 41 | 17.6 | 39% | 35 | 30.05 | 0.0 | ||||||
| 06 | 11:35 | N 9 G 16 | 10.00 | Overcast | FEW050 OVC060 | 41 | 17.6 | 39% | 36 | 30.05 | 0.0 | ||||||
| 06 | 11:15 | N 9 | 10.00 | Overcast | OVC060 | 41 | 17.6 | 39% | 36 | 30.05 | 0.0 | ||||||
| 06 | 10:55 | NW 8 | 10.00 | Partly Cloudy | SCT060 | 41 | 19.4 | 42% | 36 | 30.06 | 0.0 | ||||||
| 06 | 10:35 | NW 9 | 10.00 | Partly Cloudy | FEW042 SCT060 | 39.2 | 19.4 | 45% | 34 | 30.06 | 0.0 | ||||||
| 06 | 10:15 | NW 3 G 15 | 10.00 | Partly Cloudy | SCT040 SCT065 | 37.4 | 19.4 | 48% | 30.07 | 0.0 | |||||||
| 06 | 09:55 | Vrbl 7 | 10.00 | Mostly Cloudy | BKN040 | 37.4 | 19.4 | 48% | 33 | 30.07 | 0.0 | ||||||
| 06 | 09:35 | W 8 | 10.00 | Mostly Cloudy | BKN038 | 37.4 | 19.4 | 48% | 32 | 30.07 | 0.0 | ||||||
| 06 | 09:15 | W 10 | 10.00 | Fair | CLR | 37.4 | 19.4 | 48% | 31 | 30.07 | 0.0 | ||||||
| 06 | 08:55 | NW 9 | 10.00 | Fair | CLR | 35.6 | 21.2 | 56% | 29 | 30.07 | 0.0 | ||||||
| 06 | 08:35 | NW 9 | 10.00 | Partly Cloudy | SCT040 | 33.8 | 23 | 65% | 27 | 30.07 | 0.0 | ||||||
| 06 | 08:15 | NW 7 | 10.00 | Overcast | OVC040 | 32 | 24.8 | 75% | 26 | 30.07 | 0.0 | ||||||
| 06 | 07:55 | W 7 | 10.00 | Overcast | OVC040 | 32 | 24.8 | 75% | 26 | 30.07 | 0.0 | ||||||
| 06 | 07:35 | NW 8 | 10.00 | Overcast | OVC039 | 30.2 | 24.8 | 80% | 23 | 30.07 | 0.0 | ||||||
| 06 | 07:15 | NW 7 | 10.00 | Overcast | OVC038 | 30.2 | 24.8 | 80% | 24 | 30.06 | 0.0 | ||||||
| 06 | 06:55 | NW 8 | 10.00 | Overcast | OVC039 | 28.4 | 23 | 80% | 21 | 30.06 | 0.0 | ||||||
| 06 | 06:35 | NW 8 | 10.00 | Overcast | OVC039 | 28.4 | 23 | 80% | 21 | 30.05 | 0.0 | ||||||
| 06 | 06:15 | NW 8 | 10.00 | Overcast | OVC039 | 28.4 | 24.8 | 86% | 21 | 30.05 | 0.0 | ||||||
| 06 | 05:55 | NW 8 | 10.00 | Overcast | OVC039 | 26.6 | 23 | 86% | 19 | 30.05 | 0.0 | ||||||
| 06 | 05:35 | W 9 | 10.00 | Overcast | OVC041 | 26.6 | 23 | 86% | 18 | 30.05 | 0.0 | ||||||
| 06 | 05:15 | W 8 | 10.00 | Overcast | BKN039 OVC045 | 28.4 | 23 | 80% | 21 | 30.05 | 0.0 | ||||||
| 06 | 04:55 | W 7 | 10.00 | Overcast | OVC039 | 28.4 | 24.8 | 86% | 22 | 30.05 | 0.0 | ||||||
| 06 | 04:35 | W 5 | 10.00 | Overcast | OVC039 | 28.4 | 24.8 | 86% | 24 | 30.04 | 0.0 | ||||||
| 06 | 04:15 | W 6 | 10.00 | Overcast | OVC040 | 28.4 | 24.8 | 86% | 23 | 30.04 | 0.0 | ||||||
| 06 | 03:55 | NW 6 | 10.00 | Overcast | OVC040 | 28.4 | 23 | 80% | 23 | 30.04 | 0.0 | ||||||
| 06 | 03:35 | W 7 | 10.00 | Overcast | OVC040 | 28.4 | 24.8 | 86% | 22 | 30.04 | 0.0 | ||||||
| 06 | 03:15 | W 5 | 10.00 | Overcast | OVC041 | 26.6 | 23 | 86% | 22 | 30.04 | 0.0 | ||||||
| 06 | 02:55 | SW 5 | 10.00 | Overcast | OVC040 | 24.8 | 23 | 93% | 20 | 30.04 | 0.0 | ||||||
| 06 | 02:35 | W 6 | 10.00 | Overcast | OVC041 | 24.8 | 21.2 | 86% | 19 | 30.04 | 0.0 | ||||||
| 06 | 02:15 | Calm | 10.00 | Mostly Cloudy | BKN042 BKN048 | 24.8 | 21.2 | 86% | 30.04 | 0.0 | |||||||
| 06 | 01:55 | Calm | 10.00 | Mostly Cloudy | BKN044 | 24.8 | 19.4 | 80% | 30.04 | 0.0 | |||||||
| 06 | 01:35 | NW 5 | 10.00 | Mostly Cloudy | BKN044 | 24.8 | 21.2 | 86% | 20 | 30.04 | 0.0 | ||||||
| 06 | 00:55 | NW 6 | 10.00 | A Few Clouds | FEW047 | 26.6 | 21.2 | 80% | 21 | 30.04 | 0.0 | ||||||
| 06 | 00:35 | NW 6 | 10.00 | Fair | CLR | 26.6 | 21.2 | 80% | 21 | 30.04 | 0.0 | ||||||
| 06 | 00:15 | NW 6 | 10.00 | Fair | CLR | 28.4 | 21.2 | 74% | 23 | 30.04 | 0.0 | ||||||
| 05 | 23:55 | NW 5 | 10.00 | A Few Clouds | FEW048 | 30.2 | 21.2 | 69% | 26 | 30.03 | 0.0 | ||||||
| 05 | 23:35 | N 3 | 10.00 | Mostly Cloudy | BKN048 | 30.2 | 21.2 | 69% | 30.03 | 0.0 | |||||||
| 05 | 23:15 | N 5 | 10.00 | Overcast | OVC048 | 32 | 21.2 | 64% | 28 | 30.03 | 0.0 | ||||||
| 05 | 22:55 | N 6 | 10.00 | Overcast | OVC048 | 33.8 | 21.2 | 60% | 29 | 30.03 | 0.0 | ||||||
| 05 | 22:35 | N 8 | 10.00 | Overcast | OVC049 | 33.8 | 21.2 | 60% | 28 | 30.03 | 0.0 | ||||||
| 05 | 22:15 | N 6 | 10.00 | Overcast | OVC050 | 33.8 | 21.2 | 60% | 29 | 30.03 | 0.0 | ||||||
| 05 | 21:55 | N 6 | 10.00 | Overcast | OVC049 | 33.8 | 21.2 | 60% | 29 | 30.02 | 0.0 | ||||||
| 05 | 21:35 | N 8 | 10.00 | Overcast | OVC049 | 35.6 | 19.4 | 52% | 30 | 30.02 | 0.0 | ||||||
| 05 | 21:15 | N 7 | 10.00 | Overcast | OVC050 | 35.6 | 19.4 | 52% | 31 | 30.01 | 0.0 | ||||||
| 05 | 20:55 | N 7 | 10.00 | Overcast | OVC050 | 35.6 | 19.4 | 52% | 31 | 30 | 0.0 | ||||||
| 05 | 20:35 | N 8 G 14 | 10.00 | Overcast | OVC050 | 35.6 | 19.4 | 52% | 30 | 30 | 0.0 | ||||||
| 05 | 20:15 | N 10 | 10.00 | Overcast | OVC050 | 35.6 | 19.4 | 52% | 29 | 30 | 0.0 | ||||||
| 05 | 19:55 | N 10 | 10.00 | Overcast | OVC050 | 35.6 | 19.4 | 52% | 29 | 30 | 0.0 | ||||||
| 05 | 19:35 | N 10 G 16 | 10.00 | Overcast | OVC050 | 37.4 | 21.2 | 52% | 31 | 29.99 | 0.0 | ||||||
| 05 | 19:15 | N 12 G 17 | 10.00 | Overcast | OVC050 | 37.4 | 19.4 | 48% | 30 | 29.99 | 0.0 | ||||||
| 05 | 18:55 | N 13 | 10.00 | Overcast | OVC050 | 37.4 | 19.4 | 48% | 30 | 29.99 | 0.0 | ||||||
| 05 | 18:35 | N 15 | 10.00 | Overcast | FEW043 OVC050 | 37.4 | 21.2 | 52% | 29 | 29.99 | 0.0 | ||||||
| 05 | 18:15 | N 15 | 10.00 | Overcast | BKN043 OVC049 | 37.4 | 21.2 | 52% | 29 | 29.99 | 0.0 | ||||||
| 05 | 17:55 | NW 15 | 10.00 | Overcast | OVC046 | 37.4 | 21.2 | 52% | 29 | 29.99 | 0.0 | ||||||
| 05 | 17:35 | NW 18 | 10.00 | Light Unknown Precip | OVC041 | 37.4 | 21.2 | 52% | 28 | 29.98 | 0.0 | ||||||
| 05 | 17:15 | N 16 | 10.00 | Overcast | BKN040 OVC049 | 37.4 | 21.2 | 52% | 29 | 29.98 | 0.0 | ||||||
| 05 | 16:55 | N 14 | 10.00 | Overcast | SCT041 OVC049 | 37.4 | 21.2 | 52% | 30 | 29.98 | 0.0 | ||||||
| 05 | 16:35 | NW 13 G 20 | 10.00 | Overcast | OVC041 | 37.4 | 21.2 | 52% | 30 | 29.98 | 0.0 | ||||||
| 05 | 16:15 | N 14 G 21 | 10.00 | Overcast | OVC043 | 37.4 | 21.2 | 52% | 30 | 29.98 | 0.0 | ||||||
| 05 | 15:55 | NW 15 | 10.00 | Overcast | OVC044 | 39.2 | 19.4 | 45% | 31 | 29.97 | 0.0 | ||||||
| 05 | 15:35 | NW 14 G 23 | 10.00 | Light Unknown Precip | OVC044 | 39.2 | 19.4 | 45% | 32 | 29.97 | 0.0 | ||||||
| 05 | 15:15 | NW 16 G 23 | 10.00 | Light Unknown Precip | OVC045 | 39.2 | 19.4 | 45% | 31 | 29.97 | 0.0 | ||||||
| 05 | 14:55 | NW 16 | 10.00 | Overcast | OVC044 | 37.4 | 19.4 | 48% | 29 | 29.97 | 0.0 | ||||||
| 05 | 14:35 | NW 16 G 23 | 10.00 | Light Unknown Precip | OVC043 | 37.4 | 19.4 | 48% | 29 | 29.96 | 0.0 | ||||||
| 05 | 14:15 | NW 20 | 10.00 | Light Unknown Precip | OVC044 | 39.2 | 19.4 | 45% | 30 | 29.96 | 0.0 | ||||||
| 05 | 13:55 | NW 18 | 10.00 | Light Unknown Precip | OVC042 | 37.4 | 19.4 | 48% | 28 | 29.96 | 0.0 | ||||||
| 05 | 13:35 | NW 15 G 23 | 10.00 | Overcast | OVC042 | 37.4 | 19.4 | 48% | 29 | 29.96 | 0.0 | ||||||
| 05 | 13:15 | NW 16 G 23 | 10.00 | Light Unknown Precip | BKN041 OVC046 | 37.4 | 19.4 | 48% | 29 | 29.96 | 0.0 | ||||||
| 05 | 12:55 | NW 16 G 26 | 10.00 | Light Unknown Precip | BKN040 OVC047 | 37.4 | 21.2 | 52% | 29 | 29.96 | 0.0 | ||||||
| 05 | 12:35 | NW 18 G 26 | 10.00 | Light Unknown Precip | BKN041 OVC048 | 37.4 | 19.4 | 48% | 28 | 29.96 | 0.0 | ||||||
| 05 | 12:15 | NW 22 | 10.00 | Overcast and Breezy | OVC048 | 37.4 | 19.4 | 48% | 27 | 29.95 | 0.0 | ||||||
| 05 | 11:55 | NW 21 G 30 | 10.00 | Light Unknown Precip and Breezy | SCT042 OVC049 | 37.4 | 19.4 | 48% | 28 | 29.95 | 0.0 | ||||||
| 05 | 11:35 | NW 22 | 10.00 | Light Unknown Precip and Breezy | SCT043 OVC050 | 39.2 | 19.4 | 45% | 30 | 29.94 | 0.0 | ||||||
| 05 | 11:15 | NW 17 G 28 | 10.00 | Light Unknown Precip | BKN043 OVC049 | 37.4 | 19.4 | 48% | 29 | 29.94 | 0.0 | ||||||
| 05 | 10:55 | NW 15 G 22 | 10.00 | Light Unknown Precip | BKN041 OVC048 | 37.4 | 19.4 | 48% | 29 | 29.94 | 0.0 | ||||||
| 05 | 10:35 | NW 16 G 24 | 10.00 | Mostly Cloudy | BKN044 BKN050 BKN060 | 39.2 | 19.4 | 45% | 31 | 29.94 | 0.0 | ||||||
| 05 | 10:15 | N 18 G 29 | 10.00 | Light Unknown Precip | FEW043 FEW060 | 39.2 | 19.4 | 45% | 31 | 29.93 | 0.0 | ||||||
| 05 | 09:55 | NW 16 G 24 | 10.00 | Light Unknown Precip | CLR | 39.2 | 17.6 | 42% | 31 | 29.93 | 0.0 | ||||||
| 05 | 09:35 | NW 20 | 10.00 | Light Unknown Precip | CLR | 37.4 | 17.6 | 45% | 28 | 29.93 | 0.0 | ||||||
| 05 | 09:15 | NW 21 | 10.00 | Light Unknown Precip and Breezy | CLR | 37.4 | 17.6 | 45% | 28 | 29.92 | 0.0 | ||||||
| 05 | 08:55 | N 15 G 21 | 10.00 | A Few Clouds | FEW047 FEW055 | 35.6 | 21.2 | 56% | 27 | 29.92 | 0.0 | ||||||
| 05 | 08:35 | NW 12 | 10.00 | Fair | CLR | 35.6 | 23 | 60% | 28 | 29.92 | 0.0 | ||||||
| 05 | 08:15 | NW 13 | 10.00 | Fair | CLR | 33.8 | 23 | 65% | 25 | 29.91 | 0.0 | ||||||
| 05 | 07:55 | NW 15 | 10.00 | Light Unknown Precip | CLR | 32 | 21.2 | 64% | 22 | 29.9 | 0.0 | ||||||
| 05 | 07:35 | NW 15 | 10.00 | Light Unknown Precip | CLR | 32 | 21.2 | 64% | 22 | 29.89 | 0.0 | ||||||
| 05 | 07:15 | NW 13 | 10.00 | Fair | CLR | 32 | 21.2 | 64% | 23 | 29.89 | 0.0 | ||||||
| 05 | 06:55 | NW 13 | 10.00 | Mostly Cloudy | BKN065 | 30.2 | 21.2 | 69% | 21 | 29.88 | 0.0 | ||||||
| 05 | 06:35 | NW 10 | 10.00 | Mostly Cloudy | FEW060 BKN070 | 30.2 | 23 | 75% | 22 | 29.88 | 0.0 | ||||||
| 05 | 06:15 | NW 10 | 10.00 | Partly Cloudy | FEW060 SCT070 | 30.2 | 21.2 | 69% | 22 | 29.87 | 0.0 | ||||||
| 05 | 05:55 | NW 13 | 10.00 | Overcast | SCT060 OVC070 | 32 | 23 | 69% | 23 | 29.87 | 0.0 | ||||||
| 05 | 05:35 | NW 14 | 10.00 | Overcast | OVC070 | 32 | 23 | 69% | 23 | 29.86 | 0.0 | ||||||
| 05 | 05:15 | NW 13 | 10.00 | Light Unknown Precip | OVC070 | 33.8 | 23 | 65% | 25 | 29.86 | 0.0 | ||||||
| 05 | 04:55 | NW 13 G 20 | 10.00 | Light Unknown Precip | OVC070 | 33.8 | 23 | 65% | 25 | 29.86 | 0.0 | ||||||
| 05 | 04:35 | NW 15 | 10.00 | Overcast | OVC070 | 33.8 | 23 | 65% | 25 | 29.86 | 0.0 | ||||||
| 05 | 04:15 | NW 12 G 18 | 10.00 | Overcast | OVC070 | 33.8 | 24.8 | 70% | 26 | 29.86 | 0.0 | ||||||
| 05 | 03:55 | W 12 | 10.00 | Overcast | OVC070 | 33.8 | 24.8 | 70% | 26 | 29.85 | 0.0 | ||||||
| 05 | 03:35 | W 12 G 17 | 10.00 | Overcast | OVC070 | 33.8 | 24.8 | 70% | 26 | 29.85 | 0.0 | ||||||
| 05 | 03:15 | W 9 | 10.00 | Overcast | OVC070 | 33.8 | 26.6 | 75% | 27 | 29.85 | 0.0 | ||||||
| 05 | 02:55 | W 12 | 10.00 | Overcast | OVC070 | 32 | 26.6 | 80% | 24 | 29.85 | 0.0 | ||||||
| 05 | 02:35 | W 9 | 10.00 | Overcast | OVC070 | 32 | 26.6 | 80% | 25 | 29.85 | 0.0 | ||||||
| 05 | 02:15 | W 9 | 10.00 | Overcast | OVC070 | 32 | 26.6 | 80% | 25 | 29.85 | 0.0 | ||||||
| 05 | 01:55 | W 10 | 10.00 | Overcast | OVC070 | 33.8 | 26.6 | 75% | 26 | 29.85 | 0.0 | ||||||
| 05 | 01:35 | W 10 | 10.00 | Overcast | OVC075 | 33.8 | 24.8 | 70% | 26 | 29.85 | 0.0 | ||||||
| 05 | 01:15 | W 9 | 10.00 | Overcast | OVC075 | 33.8 | 24.8 | 70% | 27 | 29.85 | 0.0 | ||||||
| 05 | 00:55 | W 8 | 10.00 | Overcast | FEW060 OVC075 | 33.8 | 24.8 | 70% | 28 | 29.84 | 0.0 | ||||||
| 05 | 00:35 | NW 7 | 10.00 | Overcast | FEW070 OVC080 | 35.6 | 24.8 | 65% | 31 | 29.84 | 0.0 | ||||||
| 05 | 00:15 | NW 10 | 10.00 | Overcast | OVC080 | 37.4 | 26.6 | 65% | 31 | 29.84 | 0.0 | ||||||
| 04 | 23:55 | NW 10 | 10.00 | Overcast | OVC080 | 37.4 | 26.6 | 65% | 31 | 29.84 | 0.0 | ||||||
| Date | Time (cdt) | Wind (mph) | Vis. (mi.) | Weather | Sky Cond. | Air | Dwpt | Max. | Min. | Relative Humidity | Wind Chill (°F) | Heat Index (°F) | altimeter (in) | sea level (mb) | 1 hr | 3 hr | 6 hr |
| 6 hour | |||||||||||||||||
| Temperature (ºF) | Pressure | Precipitation (in) | |||||||||||||||